STARLINK-4353 (53214 NORAD) Tracking and Keplerian Element Data

This shows tracking and keplerian element data for the satellite.

Feedback or suggestion? Click here.




ElementValue
Catalog53214
NameSTARLINK-4353
Epoch Orbit1072
Epoch Day270.15305627
Epoch Year2022
RAAN329.9779
Inclination97.6539
Eccentricity0.0002113
Argument of Perigee152.4752
Mean Anonmoly207.6585
Mean Motion15.0127389
Decay Rate-6.665E-05
L11 53214U 22084AB 22270.15305627 -.00006665 00000+0 -51460-3 0 9996
L22 53214 97.6539 329.9779 0002113 152.4752 207.6585 15.01273890 10724

Live tracking and technical data element details for STARLINK-4353 (NORAD 53214). STARLINK-4353 can be tracked NOW for your location showing map with azimuth and elevation plus other details from your city location.

Track the satellite on the map from your city or location and see movement details for azimuth, elevation, latitude, longitude, range, height, and movement on the map or in text.







IsCatalogInMostPopularTable: catalog: 53214, numindb: 4
Update: records affected: 1



GetName: 53214 STARLINK-4353

Hit Count: updated at: Thu, 29 Sep 2022 10:22:25 GMT